Location: Lugrin
(46.4033°N, 6.6674°E)
Time: 09:45:04
(UTC+00:00)

N. Korean satellite - Pass Details

Date: 28 November 2020
Orbit: 453 x 502 km, 97.2° (Epoch: 16 January)

Event Time Altitude Azimuth Distance (km) Brightness Sun altitude
Rises 03:54:59 0° 34° (NNE) 2,553 10.6 -30.0°
Reaches altitude 10° 03:58:16 10° 67° (ENE) 1,679 10.1 -29.4°
Maximum altitude 03:59:40 12° 90° (E) 1,569 10.0 -29.2°
Drops below altitude 10° 04:01:03 10° 113° (ESE) 1,683 10.1 -29.0°
Sets 04:04:21 0° 146° (SE) 2,568 10.7 -28.4°
